Location: Quebec
(46.8000°N, 71.2500°W)
Time: 07:25:37
(UTC-04:00)

Envisat - Pass Details

Date: 10 October 2017
Orbit: 764 x 766 km, 98.2° (Epoch: 24 October)

Event Time Altitude Azimuth Distance (km) Brightness Sun altitude
Exits shadow 19:27:28 22° 103° (ESE) 1,627 4.1 -14.6°
Maximum altitude 19:29:32 29° 64° (ENE) 1,368 3.8 -15.0°
Drops below altitude 10° 19:33:53 10° 6° (N) 2,313 5.5 -15.7°
Sets 19:36:26 0° 355° (N) 3,244 6.4 -16.1°
